Location: ????????
(55.1591°N, 39.1782°E)
Time: 08:55:57
(UTC+00:00)

USA 215 - Pass Details

Date: 14 April 2024
Orbit: 1100 x 1107 km, 123.0° (Epoch: 22 April)

Event Time Altitude Azimuth Distance (km) Brightness Sun altitude
Rises 01:35:00 0° 90° (E) 3,925 7.4 -7.0°
Reaches altitude 10° 01:37:29 10° 89° (E) 2,966 6.7 -6.6°
Maximum altitude 01:44:02 78° 5° (N) 1,132 3.5 -5.8°
Drops below altitude 10° 01:50:34 10° 281° (W) 2,963 5.0 -5.0°
Sets 01:53:03 0° 280° (W) 3,921 5.6 -4.6°
